TimeEDT,TemperatureF,Dew PointF,Humidity,Sea Level PressureIn,VisibilityMPH,Wind Direction,Wind SpeedMPH,Gust SpeedMPH,PrecipitationIn,Events,Conditions,WindDirDegrees,DateUTC
12:53 AM,82.0,75.0,79,30.05,10.0,ESE,13.8,-,N/A,,Clear,110,2013-06-17 04:53:00
1:53 AM,82.0,75.0,79,30.04,10.0,ESE,10.4,-,N/A,,Clear,110,2013-06-17 05:53:00
2:53 AM,82.0,75.0,79,30.01,10.0,ESE,12.7,-,N/A,,Partly Cloudy,120,2013-06-17 06:53:00
3:53 AM,82.0,75.9,82,29.99,10.0,ESE,13.8,19.6,N/A,,Partly Cloudy,120,2013-06-17 07:53:00
4:53 AM,82.0,75.0,79,30.00,10.0,ESE,9.2,-,N/A,,Partly Cloudy,120,2013-06-17 08:53:00
5:53 AM,82.0,75.0,79,30.01,9.0,ESE,8.1,-,N/A,,Scattered Clouds,120,2013-06-17 09:53:00
6:01 AM,82.4,75.2,79,30.01,9.0,East,8.1,-,N/A,,Mostly Cloudy,100,2013-06-17 10:01:00
6:16 AM,82.4,75.2,79,30.01,10.0,ESE,9.2,-,N/A,,Scattered Clouds,110,2013-06-17 10:16:00
6:53 AM,82.0,75.9,82,30.01,10.0,East,8.1,-,N/A,,Scattered Clouds,100,2013-06-17 10:53:00
7:53 AM,82.9,75.9,79,30.04,10.0,East,6.9,-,N/A,,Scattered Clouds,90,2013-06-17 11:53:00
8:53 AM,84.0,75.9,76,30.04,10.0,East,8.1,-,N/A,,Scattered Clouds,100,2013-06-17 12:53:00
9:53 AM,86.0,75.9,72,30.04,10.0,East,10.4,-,N/A,,Scattered Clouds,90,2013-06-17 13:53:00
10:53 AM,86.0,77.0,74,30.05,10.0,ESE,13.8,-,N/A,,Scattered Clouds,110,2013-06-17 14:53:00
11:53 AM,86.0,77.0,74,30.06,10.0,ESE,11.5,-,N/A,,Scattered Clouds,110,2013-06-17 15:53:00
12:53 PM,87.1,77.0,72,30.05,10.0,East,12.7,-,N/A,,Mostly Cloudy,100,2013-06-17 16:53:00
1:53 PM,88.0,78.1,72,30.04,10.0,East,15.0,-,N/A,,Partly Cloudy,90,2013-06-17 17:53:00
2:53 PM,88.0,77.0,70,30.03,10.0,East,15.0,-,N/A,,Mostly Cloudy,100,2013-06-17 18:53:00
3:53 PM,88.0,77.0,70,30.01,10.0,ESE,15.0,-,N/A,,Mostly Cloudy,110,2013-06-17 19:53:00
4:53 PM,87.1,77.0,72,30.01,10.0,East,13.8,-,N/A,,Mostly Cloudy,100,2013-06-17 20:53:00
5:53 PM,87.1,77.0,72,30.01,10.0,ESE,12.7,-,N/A,,Scattered Clouds,110,2013-06-17 21:53:00
6:53 PM,86.0,75.9,72,30.01,10.0,ESE,13.8,-,N/A,,Scattered Clouds,110,2013-06-17 22:53:00
7:53 PM,84.0,77.0,79,30.02,10.0,ESE,12.7,-,N/A,,Scattered Clouds,110,2013-06-17 23:53:00
8:53 PM,82.9,77.0,82,30.03,10.0,ESE,11.5,-,N/A,,Scattered Clouds,110,2013-06-18 00:53:00
9:53 PM,82.9,77.0,82,30.04,10.0,ESE,10.4,-,N/A,,Scattered Clouds,110,2013-06-18 01:53:00
10:24 PM,82.4,77.0,84,30.05,10.0,ESE,12.7,-,N/A,,Mostly Cloudy,120,2013-06-18 02:24:00
10:43 PM,82.4,75.2,79,30.05,10.0,ESE,12.7,19.6,N/A,,Scattered Clouds,120,2013-06-18 02:43:00
10:53 PM,82.9,75.9,79,30.05,10.0,ESE,11.5,-,N/A,,Partly Cloudy,110,2013-06-18 02:53:00
11:53 PM,82.9,77.0,82,30.05,10.0,ESE,11.5,-,N/A,,Scattered Clouds,120,2013-06-18 03:53:00